Volver al catálogo

STARLINK-2214

ActivoComunicacionesVLEO
NORAD 48566·PAYLOAD·🇺🇸 United States

Lanzado May 15, 2021 desde Cape Canaveral Space Force Station

Loading…

Próximos Pases (próximas 24 horas)

TLE

ActualizadoSource: CelesTrak SupGP

Época: Sep 14, 2026, 21:15 UTC

1 48566C 21041P   26257.88590278 -.00030197  00000+0 -97098-3 0  2570
2 48566  53.1601 348.4323 0001157  74.5865 128.7698 15.31719350    10

Sigue STARLINK-2214 en tiempo real con AllMySat

Download on the App Store